User: anonymous   Login
Location: Unspecified
(0.0000°N, 0.0000°E)
Time: 21:43:54
(UTC+00:00)
Language:

NUDT-PHONESAT - Orbit

View from above orbital plane
View from above orbital plane
View from above satellite
View from above satellite

Ground track
Ground track

The orbit data is extracted from the following two-line orbital elements,

1 40900U 15049B   18049.49690882  .00002673  00000-0  12409-3 0  9997
2 40900  97.4429  59.1514 0015386  85.7181 274.5812 15.20792652133878
Epoch (UTC): 18 February 2018 11:55:32
Eccentricity: 0.0015386
inclination: 97.4429°
perigee height: 493 km
apogee height: 514 km
right ascension of ascending node: 59.1514°
argument of perigee: 85.7181°
revolutions per day: 15.20792652
mean anomaly at epoch: 274.5812°
orbit number at epoch: 13387

The dashed part of the orbit path shows where the satellite is in the earth's shadow,  

DLR